Temperature / Humidity sensor readings

Caravan

 Timestamp   Temperature   Humidity 
 2022-01-25 00:29:31  18   62 
 2022-01-24 23:32:32  19   60 
 2022-01-24 22:35:37  20   60 
 2022-01-24 21:38:21  19   58 
 2022-01-24 20:41:09  19   58 
 2022-01-24 19:43:52  18   58 
 2022-01-24 18:46:47  18   58 
 2022-01-24 17:49:41  18   58 
 2022-01-24 16:52:40  19   58 
 2022-01-24 15:55:33  19   58 
 2022-01-24 14:58:24  19   58 
 2022-01-24 14:01:08  19   59 
 2022-01-24 13:03:58  19   59 
 2022-01-24 12:06:58  20   59 
 2022-01-24 11:09:45  19   60 
 2022-01-24 10:12:35  19   61 
 2022-01-24 09:15:33  18   62 
 2022-01-24 08:18:25  17   62 
 2022-01-24 07:21:17  16   62 
 2022-01-24 06:24:02  14   67 
 2022-01-24 05:27:10  15   67 
 2022-01-24 04:29:49  15   66 
 2022-01-24 03:32:52  16   66 
 2022-01-24 02:35:46  15   66 
 2022-01-24 01:38:37  15   64 
 2022-01-24 00:41:37  16   62 
 2022-01-23 23:44:48  18   61 
 2022-01-23 22:47:45  18   58 
 2022-01-23 21:50:31  19   58 
 2022-01-23 20:53:26  19   58 
 2022-01-23 19:56:15  19   58 
 2022-01-23 18:59:04  19   58 
 2022-01-23 18:01:48  19   58 
 2022-01-23 16:08:56  15   60 
 2022-01-23 15:10:45  15   60 
 2022-01-23 14:13:30  16   60 
 2022-01-23 13:19:11  17   61 
 2022-01-23 12:18:24  18   61 
 2022-01-23 11:22:56  19   59 
 2022-01-23 10:25:52  20   60 
 2022-01-23 09:30:23  20   61 
 2022-01-23 08:29:01  19   62 
 2022-01-23 07:31:41  19   62 
 2022-01-23 06:35:13  19   62 
 2022-01-23 05:38:27  19   61 
 2022-01-23 04:42:16  20   62 
 2022-01-23 03:44:41  21   63 
 2022-01-23 02:48:45  19   64